Year,Month,Day,Hour,Minute,Value (Times are PST for temperature in C)
2015,06,07,00,00,18.90
2015,06,07,00,01,18.90
2015,06,07,00,02,18.80
2015,06,07,00,03,18.80
2015,06,07,00,04,18.80
2015,06,07,00,05,18.80
2015,06,07,00,06,18.80
2015,06,07,00,07,18.70
2015,06,07,00,08,18.70
2015,06,07,00,09,18.70
2015,06,07,00,10,18.70
2015,06,07,00,11,18.70
2015,06,07,00,12,18.70
2015,06,07,00,13,18.70
2015,06,07,00,14,18.60
2015,06,07,00,15,18.60
2015,06,07,00,16,18.60
2015,06,07,00,17,18.50
2015,06,07,00,18,18.50
2015,06,07,00,19,18.50
2015,06,07,00,20,18.50
2015,06,07,00,21,18.40
2015,06,07,00,22,18.40
2015,06,07,00,23,18.40
2015,06,07,00,24,18.30
2015,06,07,00,25,18.30
2015,06,07,00,26,18.30
2015,06,07,00,27,18.20
2015,06,07,00,28,18.20
2015,06,07,00,29,18.20
2015,06,07,00,30,18.20
2015,06,07,00,31,18.20
2015,06,07,00,32,18.20
2015,06,07,00,33,18.20
2015,06,07,00,34,18.20
2015,06,07,00,35,18.10
2015,06,07,00,36,18.10
2015,06,07,00,37,18.10
2015,06,07,00,38,18.10
2015,06,07,00,39,18.10
2015,06,07,00,40,18.10
2015,06,07,00,41,17.90
2015,06,07,00,42,17.90
2015,06,07,00,43,17.90
2015,06,07,00,44,17.90
2015,06,07,00,45,17.80
2015,06,07,00,46,17.80
2015,06,07,00,47,17.70
2015,06,07,00,48,17.70
2015,06,07,00,49,17.60
2015,06,07,00,50,17.60
2015,06,07,00,51,17.50
2015,06,07,00,52,17.50
2015,06,07,00,53,17.50
2015,06,07,00,54,17.40
2015,06,07,00,55,17.40
2015,06,07,00,56,17.30
2015,06,07,00,57,17.30
2015,06,07,00,58,17.30
2015,06,07,00,59,17.30
2015,06,07,01,00,17.20
2015,06,07,01,01,17.20
2015,06,07,01,02,17.20
2015,06,07,01,03,17.10
2015,06,07,01,04,17.10
2015,06,07,01,05,17.10
2015,06,07,01,06,17.10
2015,06,07,01,07,17.00
2015,06,07,01,08,17.00
2015,06,07,01,09,17.00
2015,06,07,01,10,17.00
2015,06,07,01,11,16.90
2015,06,07,01,12,16.90
2015,06,07,01,13,16.90
2015,06,07,01,14,16.90
2015,06,07,01,15,16.90
2015,06,07,01,16,16.90
2015,06,07,01,17,16.90
2015,06,07,01,18,16.80
2015,06,07,01,19,16.80
2015,06,07,01,20,16.80
2015,06,07,01,21,16.80
2015,06,07,01,22,16.80
2015,06,07,01,23,16.70
2015,06,07,01,24,16.70
2015,06,07,01,25,16.70
2015,06,07,01,26,16.70
2015,06,07,01,27,16.70
2015,06,07,01,28,16.70
2015,06,07,01,29,16.70
2015,06,07,01,30,16.70
2015,06,07,01,31,16.70
2015,06,07,01,32,16.70
2015,06,07,01,33,16.60
2015,06,07,01,34,16.60
2015,06,07,01,35,16.60
2015,06,07,01,36,16.60
2015,06,07,01,37,16.60
2015,06,07,01,38,16.60
2015,06,07,01,39,16.50
2015,06,07,01,40,16.40
2015,06,07,01,41,16.40
2015,06,07,01,42,16.40
2015,06,07,01,43,16.40
2015,06,07,01,44,16.40
2015,06,07,01,45,16.40
2015,06,07,01,46,16.40
2015,06,07,01,47,16.40
2015,06,07,01,48,16.40
2015,06,07,01,49,16.40
2015,06,07,01,50,16.40
2015,06,07,01,51,16.40
2015,06,07,01,52,16.40
2015,06,07,01,53,16.40
2015,06,07,01,54,16.40
2015,06,07,01,55,16.40
2015,06,07,01,56,16.40
2015,06,07,01,57,16.30
2015,06,07,01,58,16.30
2015,06,07,01,59,16.30
2015,06,07,02,00,16.30
2015,06,07,02,01,16.30
2015,06,07,02,02,16.30
2015,06,07,02,03,16.30
2015,06,07,02,04,16.30
2015,06,07,02,05,16.30
2015,06,07,02,06,16.30
2015,06,07,02,07,16.30
2015,06,07,02,08,16.30
2015,06,07,02,09,16.30
2015,06,07,02,10,16.40
2015,06,07,02,11,16.40
2015,06,07,02,12,16.40
2015,06,07,02,13,16.40
2015,06,07,02,14,16.40
2015,06,07,02,15,16.30
2015,06,07,02,16,16.30
2015,06,07,02,17,16.30
2015,06,07,02,18,16.30
2015,06,07,02,19,16.30
2015,06,07,02,20,16.20
2015,06,07,02,21,16.20
2015,06,07,02,22,16.20
2015,06,07,02,23,16.10
2015,06,07,02,24,16.10
2015,06,07,02,25,16.10
2015,06,07,02,26,16.10
2015,06,07,02,27,16.10
2015,06,07,02,28,16.00
2015,06,07,02,29,15.90
2015,06,07,02,30,15.90
2015,06,07,02,31,15.80
2015,06,07,02,32,15.80
2015,06,07,02,33,15.80
2015,06,07,02,34,15.80
2015,06,07,02,35,15.80
2015,06,07,02,36,15.80
2015,06,07,02,37,15.80
2015,06,07,02,38,15.80
2015,06,07,02,39,15.80
2015,06,07,02,40,15.80
2015,06,07,02,41,15.80
2015,06,07,02,42,15.80
2015,06,07,02,43,15.80
2015,06,07,02,44,15.80
2015,06,07,02,45,15.80
2015,06,07,02,46,15.80
2015,06,07,02,47,15.80
2015,06,07,02,48,15.80
2015,06,07,02,49,15.80
2015,06,07,02,50,15.80
2015,06,07,02,51,15.80
2015,06,07,02,52,15.80
2015,06,07,02,53,15.80
2015,06,07,02,54,15.80
2015,06,07,02,55,15.70
2015,06,07,02,56,15.70
2015,06,07,02,57,15.60
2015,06,07,02,58,15.50
2015,06,07,02,59,15.40
2015,06,07,03,00,15.30
2015,06,07,03,01,15.20
2015,06,07,03,02,15.00
2015,06,07,03,03,14.90
2015,06,07,03,04,14.80
2015,06,07,03,05,14.70
2015,06,07,03,06,14.70
2015,06,07,03,07,14.60
2015,06,07,03,08,14.50
2015,06,07,03,09,14.50
2015,06,07,03,10,14.40
2015,06,07,03,11,14.40
2015,06,07,03,12,14.30
2015,06,07,03,13,14.20
2015,06,07,03,14,14.00
2015,06,07,03,15,13.90
2015,06,07,03,16,13.90
2015,06,07,03,17,13.80
2015,06,07,03,18,13.80
2015,06,07,03,19,13.80
2015,06,07,03,20,13.70
2015,06,07,03,21,13.70
2015,06,07,03,22,13.70
2015,06,07,03,23,13.70
2015,06,07,03,24,13.70
2015,06,07,03,25,13.70
2015,06,07,03,26,13.70
2015,06,07,03,27,13.60
2015,06,07,03,28,13.60
2015,06,07,03,29,13.60
2015,06,07,03,30,13.60
2015,06,07,03,31,13.60
2015,06,07,03,32,13.60
2015,06,07,03,33,13.60
2015,06,07,03,34,13.50
2015,06,07,03,35,13.50
2015,06,07,03,36,13.50
2015,06,07,03,37,13.50
2015,06,07,03,38,13.50
2015,06,07,03,39,13.50
2015,06,07,03,40,13.50
2015,06,07,03,41,13.50
2015,06,07,03,42,13.50
2015,06,07,03,43,13.50
2015,06,07,03,44,13.50
2015,06,07,03,45,13.50
2015,06,07,03,46,13.50
2015,06,07,03,47,13.50
2015,06,07,03,48,13.50
2015,06,07,03,49,13.50
2015,06,07,03,50,13.40
2015,06,07,03,51,13.40
2015,06,07,03,52,13.40
2015,06,07,03,53,13.40
2015,06,07,03,54,13.40
2015,06,07,03,55,13.40
2015,06,07,03,56,13.40
2015,06,07,03,57,13.30
2015,06,07,03,58,13.30
2015,06,07,03,59,13.30
2015,06,07,04,00,13.30
2015,06,07,04,01,13.30
2015,06,07,04,02,13.30
2015,06,07,04,03,13.30
2015,06,07,04,04,13.20
2015,06,07,04,05,13.20
2015,06,07,04,06,13.20
2015,06,07,04,07,13.20
2015,06,07,04,08,13.20
2015,06,07,04,09,13.10
2015,06,07,04,10,13.10
2015,06,07,04,11,13.10
2015,06,07,04,12,13.10
2015,06,07,04,13,13.10
2015,06,07,04,14,13.00
2015,06,07,04,15,13.00
2015,06,07,04,16,13.00
2015,06,07,04,17,13.00
2015,06,07,04,18,13.00
2015,06,07,04,19,13.00
2015,06,07,04,20,13.00
2015,06,07,04,21,13.00
2015,06,07,04,22,13.00
2015,06,07,04,23,13.00
2015,06,07,04,24,13.00
2015,06,07,04,25,13.00
2015,06,07,04,26,13.00
2015,06,07,04,27,13.00
2015,06,07,04,28,13.00
2015,06,07,04,29,13.10
2015,06,07,04,30,13.10
2015,06,07,04,31,13.10
2015,06,07,04,32,13.10
2015,06,07,04,33,13.10
2015,06,07,04,34,13.10
2015,06,07,04,35,13.20
2015,06,07,04,36,13.20
2015,06,07,04,37,13.20
2015,06,07,04,38,13.20
2015,06,07,04,39,13.20
2015,06,07,04,40,13.20
2015,06,07,04,41,13.30
2015,06,07,04,42,13.30
2015,06,07,04,43,13.30
2015,06,07,04,44,13.30
2015,06,07,04,45,13.30
2015,06,07,04,46,13.30
2015,06,07,04,47,13.30
2015,06,07,04,48,13.30
2015,06,07,04,49,13.30
2015,06,07,04,50,13.30
2015,06,07,04,51,13.30
2015,06,07,04,52,13.30
2015,06,07,04,53,13.30
2015,06,07,04,54,13.40
2015,06,07,04,55,13.40
2015,06,07,04,56,13.50
2015,06,07,04,57,13.50
2015,06,07,04,58,13.50
2015,06,07,04,59,13.50
2015,06,07,05,00,13.50
2015,06,07,05,01,13.50
2015,06,07,05,02,13.50
2015,06,07,05,03,13.50
2015,06,07,05,04,13.50
2015,06,07,05,05,13.50
2015,06,07,05,06,13.50
2015,06,07,05,07,13.50
2015,06,07,05,08,13.50
2015,06,07,05,09,13.50
2015,06,07,05,10,13.50
2015,06,07,05,11,13.40
2015,06,07,05,12,13.40
2015,06,07,05,13,13.40
2015,06,07,05,14,13.40
2015,06,07,05,15,13.40
2015,06,07,05,16,13.40
2015,06,07,05,17,13.40
2015,06,07,05,18,13.40
2015,06,07,05,19,13.50
2015,06,07,05,20,13.50
2015,06,07,05,21,13.50
2015,06,07,05,22,13.50
2015,06,07,05,23,13.50
2015,06,07,05,24,13.50
2015,06,07,05,25,13.50
2015,06,07,05,26,13.40
2015,06,07,05,27,13.40
2015,06,07,05,28,13.40
2015,06,07,05,29,13.40
2015,06,07,05,30,13.40
2015,06,07,05,31,13.40
2015,06,07,05,32,13.50
2015,06,07,05,33,13.50
2015,06,07,05,34,13.50
2015,06,07,05,35,13.50
2015,06,07,05,36,13.50
2015,06,07,05,37,13.50
2015,06,07,05,38,13.50
2015,06,07,05,39,13.50
2015,06,07,05,40,13.50
2015,06,07,05,41,13.60
2015,06,07,05,42,13.60
2015,06,07,05,43,13.60
2015,06,07,05,44,13.60
2015,06,07,05,45,13.60
2015,06,07,05,46,13.60
2015,06,07,05,47,13.60
2015,06,07,05,48,13.70
2015,06,07,05,49,13.70
2015,06,07,05,50,13.70
2015,06,07,05,51,13.70
2015,06,07,05,52,13.70
2015,06,07,05,53,13.70
2015,06,07,05,54,13.70
2015,06,07,05,55,13.80
2015,06,07,05,56,13.80
2015,06,07,05,57,13.90
2015,06,07,05,58,14.00
2015,06,07,05,59,14.00
2015,06,07,06,00,14.10
2015,06,07,06,01,14.20
2015,06,07,06,02,14.20
2015,06,07,06,03,14.20
2015,06,07,06,04,14.20
2015,06,07,06,05,14.20
2015,06,07,06,06,14.20
2015,06,07,06,07,14.20
2015,06,07,06,08,14.20
2015,06,07,06,09,14.30
2015,06,07,06,10,14.30
2015,06,07,06,11,14.30
2015,06,07,06,12,14.30
2015,06,07,06,13,14.30
2015,06,07,06,14,14.40
2015,06,07,06,15,14.40
2015,06,07,06,16,14.40
2015,06,07,06,17,14.50
2015,06,07,06,18,14.60
2015,06,07,06,19,14.60
2015,06,07,06,20,14.60
2015,06,07,06,21,14.70
2015,06,07,06,22,14.70
2015,06,07,06,23,14.70
2015,06,07,06,24,14.70
2015,06,07,06,25,14.80
2015,06,07,06,26,14.80
2015,06,07,06,27,14.80
2015,06,07,06,28,14.80
2015,06,07,06,29,14.80
2015,06,07,06,30,14.90
2015,06,07,06,31,14.90
2015,06,07,06,32,15.00
2015,06,07,06,33,15.00
2015,06,07,06,34,15.10
2015,06,07,06,35,15.10
2015,06,07,06,36,15.20
2015,06,07,06,37,15.20
2015,06,07,06,38,15.30
2015,06,07,06,39,15.30
2015,06,07,06,40,15.30
2015,06,07,06,41,15.30
2015,06,07,06,42,15.40
2015,06,07,06,43,15.50
2015,06,07,06,44,15.50
2015,06,07,06,45,15.60
2015,06,07,06,46,15.60
2015,06,07,06,47,15.70
2015,06,07,06,48,15.80
2015,06,07,06,49,15.90
2015,06,07,06,50,16.10
2015,06,07,06,51,16.20
2015,06,07,06,52,16.30
2015,06,07,06,53,16.40
2015,06,07,06,54,16.60
2015,06,07,06,55,16.70
2015,06,07,06,56,16.90
2015,06,07,06,57,17.00
2015,06,07,06,58,17.20
2015,06,07,06,59,17.30
2015,06,07,07,00,17.40
2015,06,07,07,01,17.50
2015,06,07,07,02,17.60
2015,06,07,07,03,17.70
2015,06,07,07,04,17.80
2015,06,07,07,05,17.90
2015,06,07,07,06,18.00
2015,06,07,07,07,18.20
2015,06,07,07,08,18.20
2015,06,07,07,09,18.20
2015,06,07,07,10,18.30
2015,06,07,07,11,18.30
2015,06,07,07,12,18.30
2015,06,07,07,13,18.30
2015,06,07,07,14,18.30
2015,06,07,07,15,18.30
2015,06,07,07,16,18.40
2015,06,07,07,17,18.40
2015,06,07,07,18,18.40
2015,06,07,07,19,18.40
2015,06,07,07,20,18.50
2015,06,07,07,21,18.60
2015,06,07,07,22,18.60
2015,06,07,07,23,18.70
2015,06,07,07,24,18.70
2015,06,07,07,25,18.80
2015,06,07,07,26,18.90
2015,06,07,07,27,18.90
2015,06,07,07,28,18.90
2015,06,07,07,29,18.90
2015,06,07,07,30,18.90
2015,06,07,07,31,18.90
2015,06,07,07,32,19.00
2015,06,07,07,33,19.10
2015,06,07,07,34,19.10
2015,06,07,07,35,19.10
2015,06,07,07,36,19.10
2015,06,07,07,37,19.10
2015,06,07,07,38,19.10
2015,06,07,07,39,19.10
2015,06,07,07,40,19.20
2015,06,07,07,41,19.30
2015,06,07,07,42,19.30
2015,06,07,07,43,19.40
2015,06,07,07,44,19.50
2015,06,07,07,45,19.60
2015,06,07,07,46,19.70
2015,06,07,07,47,19.80
2015,06,07,07,48,19.80
2015,06,07,07,49,19.90
2015,06,07,07,50,19.90
2015,06,07,07,51,19.90
2015,06,07,07,52,19.90
2015,06,07,07,53,19.90
2015,06,07,07,54,20.00
2015,06,07,07,55,20.10
2015,06,07,07,56,20.20
2015,06,07,07,57,20.20
2015,06,07,07,58,20.30
2015,06,07,07,59,20.50
2015,06,07,08,00,20.50
2015,06,07,08,01,20.60
2015,06,07,08,02,20.70
2015,06,07,08,03,20.70
2015,06,07,08,04,20.80
2015,06,07,08,05,20.90
2015,06,07,08,06,20.90
2015,06,07,08,07,21.00
2015,06,07,08,08,21.00
2015,06,07,08,09,21.00
2015,06,07,08,10,21.00
2015,06,07,08,11,21.10
2015,06,07,08,12,21.10
2015,06,07,08,13,21.10
2015,06,07,08,14,21.10
2015,06,07,08,15,21.10
2015,06,07,08,16,21.00
2015,06,07,08,17,21.00
2015,06,07,08,18,21.00
2015,06,07,08,19,21.00
2015,06,07,08,20,21.00
2015,06,07,08,21,20.90
2015,06,07,08,22,20.80
2015,06,07,08,23,20.70
2015,06,07,08,24,20.60
2015,06,07,08,25,20.50
2015,06,07,08,26,20.40
2015,06,07,08,27,20.30
2015,06,07,08,28,20.20
2015,06,07,08,29,20.20
2015,06,07,08,30,20.10
2015,06,07,08,31,20.10
2015,06,07,08,32,20.10
2015,06,07,08,33,20.10
2015,06,07,08,34,20.00
2015,06,07,08,35,19.90
2015,06,07,08,36,19.90
2015,06,07,08,37,19.90
2015,06,07,08,38,19.90
2015,06,07,08,39,19.90
2015,06,07,08,40,20.00
2015,06,07,08,41,20.10
2015,06,07,08,42,20.10
2015,06,07,08,43,20.10
2015,06,07,08,44,20.10
2015,06,07,08,45,20.00
2015,06,07,08,46,19.90
2015,06,07,08,47,19.90
2015,06,07,08,48,19.90
2015,06,07,08,49,19.90
2015,06,07,08,50,20.00
2015,06,07,08,51,20.10
2015,06,07,08,52,20.10
2015,06,07,08,53,20.20
2015,06,07,08,54,20.20
2015,06,07,08,55,20.20
2015,06,07,08,56,20.20
2015,06,07,08,57,20.10
2015,06,07,08,58,20.00
2015,06,07,08,59,19.90
2015,06,07,09,00,19.90
2015,06,07,09,01,19.90
2015,06,07,09,02,19.90
2015,06,07,09,03,19.90
2015,06,07,09,04,19.90
2015,06,07,09,05,19.90
2015,06,07,09,06,19.80
2015,06,07,09,07,19.80
2015,06,07,09,08,19.80
2015,06,07,09,09,19.70
2015,06,07,09,10,19.70
2015,06,07,09,11,19.70
2015,06,07,09,12,19.60
2015,06,07,09,13,19.60
2015,06,07,09,14,19.60
2015,06,07,09,15,19.60
2015,06,07,09,16,19.70
2015,06,07,09,17,19.70
2015,06,07,09,18,19.70
2015,06,07,09,19,19.60
2015,06,07,09,20,19.50
2015,06,07,09,21,19.40
2015,06,07,09,22,19.30
2015,06,07,09,23,19.30
2015,06,07,09,24,19.30
2015,06,07,09,25,19.30
2015,06,07,09,26,19.30
2015,06,07,09,27,19.30
2015,06,07,09,28,19.20
2015,06,07,09,29,19.10
2015,06,07,09,30,19.10
2015,06,07,09,31,19.10
2015,06,07,09,32,19.10
2015,06,07,09,33,19.00
2015,06,07,09,34,18.90
2015,06,07,09,35,18.90
2015,06,07,09,36,18.80
2015,06,07,09,37,18.70
2015,06,07,09,38,18.50
2015,06,07,09,39,18.50
2015,06,07,09,40,18.50
2015,06,07,09,41,18.50
2015,06,07,09,42,18.50
2015,06,07,09,43,18.50
2015,06,07,09,44,18.60
2015,06,07,09,45,18.60
2015,06,07,09,46,18.50
2015,06,07,09,47,18.40
2015,06,07,09,48,18.40
2015,06,07,09,49,18.40
2015,06,07,09,50,18.40
2015,06,07,09,51,18.50
2015,06,07,09,52,18.60
2015,06,07,09,53,18.60
2015,06,07,09,54,18.70
2015,06,07,09,55,18.70
2015,06,07,09,56,18.70
2015,06,07,09,57,18.80
2015,06,07,09,58,18.80
2015,06,07,09,59,18.80
2015,06,07,10,00,18.80
2015,06,07,10,01,18.70
2015,06,07,10,02,18.60
2015,06,07,10,03,18.50
2015,06,07,10,04,18.40
2015,06,07,10,05,18.40
2015,06,07,10,06,18.50
2015,06,07,10,07,18.50
2015,06,07,10,08,18.60
2015,06,07,10,09,18.60
2015,06,07,10,10,18.60
2015,06,07,10,11,18.70
2015,06,07,10,12,18.70
2015,06,07,10,13,18.90
2015,06,07,10,14,18.90
2015,06,07,10,15,18.90
2015,06,07,10,16,19.00
2015,06,07,10,17,19.10
2015,06,07,10,18,19.10
2015,06,07,10,19,19.20
2015,06,07,10,20,19.20
2015,06,07,10,21,19.20
2015,06,07,10,22,19.30
2015,06,07,10,23,19.40
2015,06,07,10,24,19.40
2015,06,07,10,25,19.40
2015,06,07,10,26,19.30
2015,06,07,10,27,19.40
2015,06,07,10,28,19.30
2015,06,07,10,29,19.20
2015,06,07,10,30,19.10
2015,06,07,10,31,19.00
2015,06,07,10,32,18.80
2015,06,07,10,33,18.70
2015,06,07,10,34,18.70
2015,06,07,10,35,18.80
2015,06,07,10,36,18.90
2015,06,07,10,37,19.00
2015,06,07,10,38,19.10
2015,06,07,10,39,19.10
2015,06,07,10,40,19.10
2015,06,07,10,41,19.20
2015,06,07,10,42,19.30
2015,06,07,10,43,19.30
2015,06,07,10,44,19.20
2015,06,07,10,45,19.10
2015,06,07,10,46,19.10
2015,06,07,10,47,19.10
2015,06,07,10,48,19.20
2015,06,07,10,49,19.30
2015,06,07,10,50,19.30
2015,06,07,10,51,19.40
2015,06,07,10,52,19.60
2015,06,07,10,53,19.70
2015,06,07,10,54,19.80
2015,06,07,10,55,19.90
2015,06,07,10,56,19.90
2015,06,07,10,57,19.90
2015,06,07,10,58,19.90
2015,06,07,10,59,19.90
2015,06,07,11,00,19.70
2015,06,07,11,01,19.70
2015,06,07,11,02,19.70
2015,06,07,11,03,19.80
2015,06,07,11,04,19.90
2015,06,07,11,05,20.00
2015,06,07,11,06,20.20
2015,06,07,11,07,20.30
2015,06,07,11,08,20.40
2015,06,07,11,09,20.40
2015,06,07,11,10,20.20
2015,06,07,11,11,20.20
2015,06,07,11,12,20.20
2015,06,07,11,13,20.20
2015,06,07,11,14,20.10
2015,06,07,11,15,20.10
2015,06,07,11,16,20.20
2015,06,07,11,17,20.40
2015,06,07,11,18,20.50
2015,06,07,11,19,20.60
2015,06,07,11,20,20.60
2015,06,07,11,21,20.70
2015,06,07,11,22,20.80
2015,06,07,11,23,21.00
2015,06,07,11,24,21.00
2015,06,07,11,25,21.10
2015,06,07,11,26,21.10
2015,06,07,11,27,21.10
2015,06,07,11,28,21.00
2015,06,07,11,29,20.90
2015,06,07,11,30,20.90
2015,06,07,11,31,20.90
2015,06,07,11,32,20.90
2015,06,07,11,33,20.90
2015,06,07,11,34,21.00
2015,06,07,11,35,21.00
2015,06,07,11,36,21.20
2015,06,07,11,37,21.30
2015,06,07,11,38,21.40
2015,06,07,11,39,21.50
2015,06,07,11,40,21.40
2015,06,07,11,41,21.30
2015,06,07,11,42,21.30
2015,06,07,11,43,21.30
2015,06,07,11,44,21.30
2015,06,07,11,45,21.40
2015,06,07,11,46,21.60
2015,06,07,11,47,21.60
2015,06,07,11,48,21.60
2015,06,07,11,49,21.50
2015,06,07,11,50,21.40
2015,06,07,11,51,21.30
2015,06,07,11,52,21.30
2015,06,07,11,53,21.30
2015,06,07,11,54,21.40
2015,06,07,11,55,21.50
2015,06,07,11,56,21.70
2015,06,07,11,57,21.80
2015,06,07,11,58,22.00
2015,06,07,11,59,22.10
2015,06,07,12,00,22.30
2015,06,07,12,01,22.40
2015,06,07,12,02,22.40
2015,06,07,12,03,22.30
2015,06,07,12,04,22.20
2015,06,07,12,05,22.20
2015,06,07,12,06,22.20
2015,06,07,12,07,22.20
2015,06,07,12,08,22.30
2015,06,07,12,09,22.50
2015,06,07,12,10,22.60
2015,06,07,12,11,22.80
2015,06,07,12,12,22.90
2015,06,07,12,13,22.90
2015,06,07,12,14,22.90
2015,06,07,12,15,22.90
2015,06,07,12,16,23.10
2015,06,07,12,17,23.10
2015,06,07,12,18,23.20
2015,06,07,12,19,23.10
2015,06,07,12,20,23.00
2015,06,07,12,21,23.00
2015,06,07,12,22,23.10
2015,06,07,12,23,23.00
2015,06,07,12,24,23.00
2015,06,07,12,25,23.10
2015,06,07,12,26,23.30
2015,06,07,12,27,23.30
2015,06,07,12,28,23.30
2015,06,07,12,29,23.30
2015,06,07,12,30,23.30
2015,06,07,12,31,23.30
2015,06,07,12,32,23.30
2015,06,07,12,33,23.10
2015,06,07,12,34,23.00
2015,06,07,12,35,23.00
2015,06,07,12,36,23.10
2015,06,07,12,37,23.10
2015,06,07,12,38,23.20
2015,06,07,12,39,23.30
2015,06,07,12,40,23.40
2015,06,07,12,41,23.50
2015,06,07,12,42,23.60
2015,06,07,12,43,23.70
2015,06,07,12,44,23.70
2015,06,07,12,45,23.70
2015,06,07,12,46,23.70
2015,06,07,12,47,23.70
2015,06,07,12,48,23.70
2015,06,07,12,49,23.70
2015,06,07,12,50,23.70
2015,06,07,12,51,23.70
2015,06,07,12,52,23.70
2015,06,07,12,53,23.60
2015,06,07,12,54,23.60
2015,06,07,12,55,23.50
2015,06,07,12,56,23.40
2015,06,07,12,57,23.40
2015,06,07,12,58,23.30
2015,06,07,12,59,23.30
2015,06,07,13,00,23.30
2015,06,07,13,01,23.30
2015,06,07,13,02,23.40
2015,06,07,13,03,23.40
2015,06,07,13,04,23.30
2015,06,07,13,05,23.30
2015,06,07,13,06,23.30
2015,06,07,13,07,23.30
2015,06,07,13,08,23.30
2015,06,07,13,09,23.30
2015,06,07,13,10,23.30
2015,06,07,13,11,23.40
2015,06,07,13,12,23.60
2015,06,07,13,13,23.70
2015,06,07,13,14,23.80
2015,06,07,13,15,23.90
2015,06,07,13,16,23.80
2015,06,07,13,17,23.70
2015,06,07,13,18,23.60
2015,06,07,13,19,23.60
2015,06,07,13,20,23.60
2015,06,07,13,21,23.60
2015,06,07,13,22,23.50
2015,06,07,13,23,23.30
2015,06,07,13,24,23.30
2015,06,07,13,25,23.30
2015,06,07,13,26,23.30
2015,06,07,13,27,23.30
2015,06,07,13,28,23.60
2015,06,07,13,29,23.70
2015,06,07,13,30,23.70
2015,06,07,13,31,23.40
2015,06,07,13,32,23.20
2015,06,07,13,33,23.00
2015,06,07,13,34,22.80
2015,06,07,13,35,22.70
2015,06,07,13,36,22.70
2015,06,07,13,37,22.70
2015,06,07,13,38,22.70
2015,06,07,13,39,22.70
2015,06,07,13,40,22.70
2015,06,07,13,41,22.60
2015,06,07,13,42,22.60
2015,06,07,13,43,22.50
2015,06,07,13,44,22.40
2015,06,07,13,45,22.30
2015,06,07,13,46,22.30
2015,06,07,13,47,22.30
2015,06,07,13,48,22.30
2015,06,07,13,49,22.40
2015,06,07,13,50,22.60
2015,06,07,13,51,22.80
2015,06,07,13,52,23.10
2015,06,07,13,53,23.30
2015,06,07,13,54,23.30
2015,06,07,13,55,23.30
2015,06,07,13,56,23.10
2015,06,07,13,57,23.10
2015,06,07,13,58,23.10
2015,06,07,13,59,22.90
2015,06,07,14,00,22.90
2015,06,07,14,01,22.80
2015,06,07,14,02,22.80
2015,06,07,14,03,22.80
2015,06,07,14,04,22.80
2015,06,07,14,05,22.90
2015,06,07,14,06,23.10
2015,06,07,14,07,23.20
2015,06,07,14,08,23.30
2015,06,07,14,09,23.40
2015,06,07,14,10,23.60
2015,06,07,14,11,23.60
2015,06,07,14,12,23.60
2015,06,07,14,13,23.60
2015,06,07,14,14,23.60
2015,06,07,14,15,23.60
2015,06,07,14,16,23.60
2015,06,07,14,17,23.70
2015,06,07,14,18,23.70
2015,06,07,14,19,23.80
2015,06,07,14,20,23.90
2015,06,07,14,21,23.90
2015,06,07,14,22,23.70
2015,06,07,14,23,23.70
2015,06,07,14,24,23.70
2015,06,07,14,25,23.70
2015,06,07,14,26,23.80
2015,06,07,14,27,23.80
2015,06,07,14,28,23.90
2015,06,07,14,29,24.00
2015,06,07,14,30,24.10
2015,06,07,14,31,24.10
2015,06,07,14,32,24.10
2015,06,07,14,33,23.90
2015,06,07,14,34,23.80
2015,06,07,14,35,23.70
2015,06,07,14,36,23.60
2015,06,07,14,37,23.50
2015,06,07,14,38,23.30
2015,06,07,14,39,23.30
2015,06,07,14,40,23.40
2015,06,07,14,41,23.50
2015,06,07,14,42,23.60
2015,06,07,14,43,23.70
2015,06,07,14,44,23.70
2015,06,07,14,45,23.70
2015,06,07,14,46,23.70
2015,06,07,14,47,23.60
2015,06,07,14,48,23.50
2015,06,07,14,49,23.30
2015,06,07,14,50,23.20
2015,06,07,14,51,23.10
2015,06,07,14,52,22.90
2015,06,07,14,53,22.90
2015,06,07,14,54,22.90
2015,06,07,14,55,22.90
2015,06,07,14,56,22.80
2015,06,07,14,57,22.80
2015,06,07,14,58,22.70
2015,06,07,14,59,22.70
2015,06,07,15,00,22.70
2015,06,07,15,01,22.70
2015,06,07,15,02,22.80
2015,06,07,15,03,22.80
2015,06,07,15,04,22.80
2015,06,07,15,05,22.90
2015,06,07,15,06,22.90
2015,06,07,15,07,23.00
2015,06,07,15,08,23.10
2015,06,07,15,09,23.20
2015,06,07,15,10,23.30
2015,06,07,15,11,23.30
2015,06,07,15,12,23.30
2015,06,07,15,13,23.30
2015,06,07,15,14,23.30
2015,06,07,15,15,23.30
2015,06,07,15,16,23.30
2015,06,07,15,17,23.30
2015,06,07,15,18,23.30
2015,06,07,15,19,23.30
2015,06,07,15,20,23.30
2015,06,07,15,21,23.20
2015,06,07,15,22,23.10
2015,06,07,15,23,23.00
2015,06,07,15,24,22.90
2015,06,07,15,25,22.90
2015,06,07,15,26,23.10
2015,06,07,15,27,23.10
2015,06,07,15,28,23.20
2015,06,07,15,29,23.20
2015,06,07,15,30,23.20
2015,06,07,15,31,23.20
2015,06,07,15,32,23.20
2015,06,07,15,33,23.20
2015,06,07,15,34,23.20
2015,06,07,15,35,23.10
2015,06,07,15,36,23.00
2015,06,07,15,37,22.90
2015,06,07,15,38,22.90
2015,06,07,15,39,22.90
2015,06,07,15,40,22.90
2015,06,07,15,41,22.90
2015,06,07,15,42,22.90
2015,06,07,15,43,22.90
2015,06,07,15,44,22.90
2015,06,07,15,45,22.80
2015,06,07,15,46,22.80
2015,06,07,15,47,22.80
2015,06,07,15,48,22.80
2015,06,07,15,49,22.80
2015,06,07,15,50,22.70
2015,06,07,15,51,22.70
2015,06,07,15,52,22.70
2015,06,07,15,53,22.80
2015,06,07,15,54,22.70
2015,06,07,15,55,22.70
2015,06,07,15,56,22.70
2015,06,07,15,57,22.80
2015,06,07,15,58,22.80
2015,06,07,15,59,22.70
2015,06,07,16,00,22.70
2015,06,07,16,01,22.70
2015,06,07,16,02,22.70
2015,06,07,16,03,22.70
2015,06,07,16,04,22.80
2015,06,07,16,05,22.80
2015,06,07,16,06,22.90
2015,06,07,16,07,23.00
2015,06,07,16,08,23.10
2015,06,07,16,09,23.30
2015,06,07,16,10,23.40
2015,06,07,16,11,23.40
2015,06,07,16,12,23.50
2015,06,07,16,13,23.70
2015,06,07,16,14,23.70
2015,06,07,16,15,23.70
2015,06,07,16,16,23.70
2015,06,07,16,17,23.70
2015,06,07,16,18,23.70
2015,06,07,16,19,23.70
2015,06,07,16,20,23.70
2015,06,07,16,21,23.70
2015,06,07,16,22,23.70
2015,06,07,16,23,23.60
2015,06,07,16,24,23.60
2015,06,07,16,25,23.60
2015,06,07,16,26,23.60
2015,06,07,16,27,23.60
2015,06,07,16,28,23.40
2015,06,07,16,29,23.30
2015,06,07,16,30,23.30
2015,06,07,16,31,23.30
2015,06,07,16,32,23.30
2015,06,07,16,33,23.30
2015,06,07,16,34,23.30
2015,06,07,16,35,23.40
2015,06,07,16,36,23.50
2015,06,07,16,37,23.60
2015,06,07,16,38,23.60
2015,06,07,16,39,23.60
2015,06,07,16,40,23.60
2015,06,07,16,41,23.70
2015,06,07,16,42,23.60
2015,06,07,16,43,23.60
2015,06,07,16,44,23.60
2015,06,07,16,45,23.60
2015,06,07,16,46,23.50
2015,06,07,16,47,23.40
2015,06,07,16,48,23.40
2015,06,07,16,49,23.30
2015,06,07,16,50,23.20
2015,06,07,16,51,22.90
2015,06,07,16,52,22.90
2015,06,07,16,53,22.90
2015,06,07,16,54,22.70
2015,06,07,16,55,22.60
2015,06,07,16,56,22.60
2015,06,07,16,57,22.70
2015,06,07,16,58,22.70
2015,06,07,16,59,22.70
2015,06,07,17,00,22.70
2015,06,07,17,01,22.80
2015,06,07,17,02,22.90
2015,06,07,17,03,23.00
2015,06,07,17,04,23.10
2015,06,07,17,05,23.20
2015,06,07,17,06,23.20
2015,06,07,17,07,23.20
2015,06,07,17,08,23.20
2015,06,07,17,09,23.10
2015,06,07,17,10,23.10
2015,06,07,17,11,23.10
2015,06,07,17,12,23.10
2015,06,07,17,13,23.10
2015,06,07,17,14,23.30
2015,06,07,17,15,23.30
2015,06,07,17,16,23.40
2015,06,07,17,17,23.40
2015,06,07,17,18,23.40
2015,06,07,17,19,23.40